Regional Weather Roundup
Issued by NWS Sioux Falls, SD

Home | Current Version | Previous Version | Text Only | Print | Product List | Glossary Off
Versions: 1 2 3 4 5 6 7 8 9 10 11 12 13 14 15 16 17 18 19 20 21 22 23 24 25 26 27 28 29 30 31 32 33 34 35 36 37 38 39 40 41 42 43 44 45 46 47 48 49 50

000
ASUS43 KFSD 031602
RWRFSD

WEATHER ROUNDUP FOR SE SOUTH DAKOTA/SW MINNESOTA/NW IOWA
NATIONAL WEATHER SERVICE SIOUX FALLS SD
1100 AM CDT SUN MAY 03 2015

NOTE: "FAIR" INDICATES FEW OR NO CLOUDS BELOW 12,000 FEET WITH NO
SIGNIFICANT WEATHER AND OR OBSTRUCTIONS TO VISIBILITY.


SDZ038>040-050-052>070-031700-
SOUTHEAST SOUTH DAKOTA

CITY           SKY/WX    TMP DP  RH WIND       PRES   REMARKS
BROOKINGS      SUNNY     72  55  56 N12       29.77S
CHAMBERLAIN    NOT AVBL
HURON          SUNNY     73  40  30 N25G43    29.79R
MADISON        FAIR      73  54  49 N8        29.78R
MITCHELL       MOSUNNY   72  55  55 N14       29.77R
SIOUX FALLS    PTSUNNY   73  55  53 S12       29.75S
WINNER         FAIR      68  39  34 N28G36    29.83R
YANKTON        SUNNY     72  55  56 CALM      29.73R
$$

MNZ071-072-080-081-089-090-097-098-031700-
SOUTHWEST MINNESOTA

CITY           SKY/WX    TMP DP  RH WIND       PRES   REMARKS
FAIRMONT       MOSUNNY   73  48  40 S10       29.79S
JACKSON        MOSUNNY   73  48  40 SW13      29.79S
LUVERNE        SUNNY     73  52  46 SW10G18   29.77S
MARSHALL       SUNNY     72  52  49 NW8       29.77R
MONTEVIDEO     SUNNY     72  55  56 N14       29.78R
REDWOOD FALLS  SUNNY     74  54  49 SW13      29.75F
TRACY          SUNNY     77  53  44 SW7       29.77S
WORTHINGTON    SUNNY     73  52  46 SW12      29.78S
$$

IAZ001>003-012>014-020>022-031-032-NEZ013-014-SDZ071-031700-
NORTHWEST IOWA

CITY           SKY/WX    TMP DP  RH WIND       PRES   REMARKS
DENISON        SUNNY     73  61  64 SW9G16    29.75F
ESTHERVILLE    MOSUNNY   73  53  49 S13G18    29.78S
SIOUX CITY     MOSUNNY   74  57  55 SE6       29.74F
SPENCER        SUNNY     75  54  47 SW12G23   29.78S
$$

ABBREVIATIONS USED IN REMARKS
   TC - TEMPERATURE IN CELSIUS
  WCI - WIND CHILL INDEX
   HX - HEAT INDEX
  VSB - VISIBILITY




USA.gov is the U.S. government's official web portal to all federal, state and local government web resources and services.